{"data":{"norad_id":55392,"epoch":"2026-09-20T22:00:03.000096Z","epoch_age_seconds":60635,"freshness":"FRESH","line1":"1 55392U 23014B   26263.91670139  .00117208  00000+0  82274-2 0  9992","line2":"2 55392  69.9996 272.0609 0000609 291.0607 146.8010 15.04481319  5764","mean_motion":15.04481319,"eccentricity":6.09e-5,"inclination_deg":69.9996,"raan_deg":272.0609,"arg_perigee_deg":291.0607,"mean_anomaly_deg":146.801,"bstar":0.0082274,"rev_number":576,"period_min":95.714049873158,"perigee_km":552.67617528149,"apogee_km":553.52039973951,"semimajor_km":6931.2352875105,"source":"CELESTRAK","updated_at":"2026-09-21T09:00:33.213205Z"}}